Tümü
San Ysidro Ranch Airport (Catarina, TX) TS40 Hava Durumu
There is no TAF data available at TS40 or any nearby airports.
There is no METAR data available at TS40. Showing METAR data for KCZT (16 mi KB).
Yakın zamandaki CZT METAR geçmişi (TS40 verisi yok)
| Date | Time (CDT) | Flight Rules | Wind Dir. | Speed | Type | Height AGL (ft) | Visibility | Temp (°C) | Temp (°F) | Dew Point (°C) | Dew Point (°F) | Rel. Humid. | Pressure | Density Altitude | Remarks |
|---|---|---|---|---|---|---|---|---|---|---|---|---|---|---|---|
| 31-Ağu | 17:15 | VFR | 90° | 9 kt | 10 miles | 40° | 104° | 17° | 62° | 26% | 29.85 in Hg | 3.668 ft | Wind gusting to 15 KT | ||
| 31-Ağu | 16:55 | VFR | 90° | 8 kt | 10 miles | 39° | 102° | 17° | 62° | 28% | 29.87 in Hg | 3.528 ft | Wind gusting to 14 KT | ||
| 31-Ağu | 16:15 | VFR | 130° | 8 kt | 10 miles | 39° | 102° | 18° | 64° | 30% | 29.88 in Hg | 3.518 ft | Wind gusting to 16 KT | ||
| 31-Ağu | 15:55 | VFR | 90° | 8 kt | 10 miles | 40° | 104° | 19° | 66° | 30% | 29.89 in Hg | 3.628 ft | Wind gusting to 15 KT | ||
| 31-Ağu | 15:35 | VFR | 100° | 7 kt | 10 miles | 40° | 104° | 20° | 68° | 32% | 29.90 in Hg | 3.618 ft | Wind gusting to 17 KT | ||
| 31-Ağu | 15:15 | VFR | 100° | 10 kt | 10 miles | 40° | 104° | 20° | 68° | 32% | 29.91 in Hg | 3.608 ft | Wind gusting to 16 KT | ||
| 31-Ağu | 14:55 | VFR | 100° | 6 kt | 10 miles | 39° | 102° | 20° | 68° | 33% | 29.93 in Hg | 3.468 ft | Wind gusting to 14 KT | ||
| 31-Ağu | 14:35 | VFR | 110° | 8 kt | 10 miles | 38° | 100° | 20° | 68° | 35% | 29.93 in Hg | 3.348 ft | |||
| 31-Ağu | 14:15 | VFR | 100° | 8 kt | 10 miles | 38° | 100° | 21° | 69° | 38% | 29.94 in Hg | 3.338 ft | Wind gusting to 14 KT | ||
| 31-Ağu | 13:55 | VFR | 70° | 8 kt | 10 miles | 37° | 98° | 21° | 69° | 40% | 29.95 in Hg | 3.208 ft | |||
| 31-Ağu | 13:35 | VFR | 120° | 9 kt | 10 miles | 37° | 98° | 22° | 71° | 42% | 29.96 in Hg | 3.198 ft | |||
| 31-Ağu | 13:15 | VFR | 100° | 6 kt | 10 miles | 36° | 96° | 22° | 71° | 45% | 29.97 in Hg | 3.068 ft | |||
| 31-Ağu | 12:55 | VFR | 140° | 6 kt | 10 miles | 35° | 95° | 22° | 71° | 47% | 29.98 in Hg | 2.938 ft | |||
| 31-Ağu | 12:35 | VFR | 110° | 6 kt | 10 miles | 35° | 95° | 23° | 73° | 50% | 29.98 in Hg | 2.938 ft | |||
| 31-Ağu | 12:15 | VFR | 90° | 5 kt | 10 miles | 34° | 93° | 23° | 73° | 53% | 29.99 in Hg | 2.808 ft | |||
| 31-Ağu | 11:55 | VFR | 160° | 4 kt | 10 miles | 33° | 91° | 23° | 73° | 56% | 29.99 in Hg | 2.688 ft | |||
| 31-Ağu | 11:35 | VFR | 120° | 4 kt | 10 miles | 33° | 91° | 23° | 73° | 56% | 30.00 in Hg | 2.678 ft | |||
| 31-Ağu | 11:15 | VFR | 100° | 5 kt | 10 miles | 32° | 89° | 23° | 73° | 59% | 30.00 in Hg | 2.558 ft | |||
| 31-Ağu | 10:55 | VFR | 170° | 6 kt | 10 miles | 32° | 89° | 23° | 73° | 59% | 30.00 in Hg | 2.558 ft | |||
| 31-Ağu | 10:15 | VFR | 150° | 7 kt | 10 miles | 30° | 86° | 23° | 73° | 66% | 30.00 in Hg | 2.318 ft | |||
| 31-Ağu | 09:55 | VFR | 160° | 7 kt | 10 miles | 29° | 84° | 23° | 73° | 70% | 30.00 in Hg | 2.198 ft | |||
| 31-Ağu | 09:15 | VFR | 140° | 4 kt | 10 miles | 28° | 82° | 26° | 78° | 89% | 30.00 in Hg | 2.078 ft | |||
| 31-Ağu | 08:55 | VFR | 140° | 6 kt | 10 miles | 27° | 80° | 26° | 78° | 94% | 29.99 in Hg | 1.968 ft | |||
| 31-Ağu | 08:15 | VFR | 110° | 6 kt | 10 miles | 25° | 77° | 25° | 77° | 100% | 29.98 in Hg | 1.738 ft |
Giriş
| Tarayıcınız desteklenmiyor. tarayıcınızı yükseltin |
